Starlink 30705

operational
NORAD ID: 57945 Int'l Des: 2023-148 Owner: SPXS Country: US Constellation: starlink
LEOCIRCULAR

About Starlink 30705

Description loading...

Live Position

Loading 3D Globe...

Upcoming Passes

Altitude History

Altitude vs Time

uPlot chart will show altitude changes over time

Two-Line Element Set

1 57945U 23148L 25350.49537565 .00000218 00000-0 19477-4 0 9990
2 57945 53.1606 50.8083 0001390 82.0315 278.0843 15.30193481125688
Epoch: Dec 16, 2025 • Age: 21 hours

Current Status

Altitude 479.6 km
Velocity 7.63 km/s
Sub-Earth Point 47.43°N, 113.57°W
Launch Date Sep 25, 2023
Age 2.2 years
Type internet

Technical Details

Classification Payload
Mass 730.00 kg
Dry Mass 700.00 kg
Total Mass 730.00 kg
Length 0.30 m
Diameter 4.10 m
Span 29.00 m
Shape Box + pan
Manufacturer SPXS
Bus Type Starlink V2M
Phase Status In Orbit
Owner/State SPXS/US

Large Constellations

Loading constellations...